This is the latest recevied weather packets stored in our database for station/object KG7FOQ-13. If no packets are shown the sender has not sent any weather packets the latest 10 day(s).
| Time | Temp. | Humidity | Pressure | Rain* | Wind** | Luminosity | Snow |
|---|---|---|---|---|---|---|---|
| 1777735129 | 10.56° C | 55% | 1018.9 hPa | 0 mm | - | - | - |
| 1777734829 | 10° C | 60% | 1018.8 hPa | 0 mm | - | - | - |
| 1777734528 | 10° C | 59% | 1018.9 hPa | 0 mm | - | - | - |
| 1777734228 | 9.44° C | 57% | 1018.8 hPa | 0 mm | - | - | - |
| 1777733927 | 10° C | 60% | 1018.9 hPa | 0 mm | - | - | - |
| 1777733626 | 9.44° C | 57% | 1018.9 hPa | 0 mm | - | - | - |
| 1777733325 | 9.44° C | 58% | 1018.8 hPa | 0 mm | - | - | - |
| 1777733025 | 8.89° C | 55% | 1018.8 hPa | 0 mm | - | - | - |
| 1777732723 | 8.89° C | 58% | 1018.9 hPa | 0 mm | - | - | - |
| 1777732423 | 8.89° C | 56% | 1018.8 hPa | 0 mm | - | - | - |
| 1777732122 | 8.33° C | 59% | 1018.8 hPa | 0 mm | - | - | - |
| 1777731822 | 8.33° C | 59% | 1018.9 hPa | 0 mm | - | - | - |
| 1777731522 | 7.78° C | 61% | 1018.8 hPa | 0 mm | - | - | - |
| 1777731221 | 7.22° C | 61% | 1018.8 hPa | 0 mm | - | - | - |
| 1777730921 | 7.22° C | 64% | 1018.9 hPa | 0 mm | - | - | - |
| 1777730619 | 6.67° C | 63% | 1018.9 hPa | 0 mm | - | - | - |
| 1777730319 | 6.11° C | 66% | 1019 hPa | 0 mm | - | - | - |
| 1777730017 | 5.56° C | 65% | 1018.8 hPa | 0 mm | - | - | - |
| 1777729717 | 6.11° C | 68% | 1018.9 hPa | 0 mm | - | - | - |
| 1777729416 | 5.56° C | 68% | 1018.8 hPa | 0 mm | - | - | - |
| 1777729116 | 5° C | 72% | 1018.8 hPa | 0 mm | - | - | - |
| 1777728816 | 4.44° C | 72% | 1018.8 hPa | 0 mm | - | - | - |
| 1777728515 | 3.89° C | 72% | 1018.8 hPa | 0 mm | - | - | - |
| 1777728214 | 4.44° C | 69% | 1018.8 hPa | 0 mm | - | - | - |
| 1777727914 | 5° C | 62% | 1018.8 hPa | 0 mm | - | - | - |
* Rain latest hour (hover to see other rain measurements)
** Current wind speed in m/s (hover to see current wind gust speed)